Erzincan, Turkey

1:49 AM EEST on August 28, 2016 (GMT +0300)
Erzincan

Weather History for LTCD - November, 2012

Change the Weather History Date:

Tuesday, November 13, 2012

  Actual Average Record
Temperature  
Mean Temperature 52 °F -  
Max Temperature 57 °F 47 °F - ()
Min Temperature 46 °F 30 °F - ()
Degree Days  
Heating Degree Days 14    
Growing Degree Days 2 (Base 50)    
Moisture  
Dew Point 45 °F    
Average Humidity 80    
Maximum Humidity 93    
Minimum Humidity 56    
Precipitation  
Precipitation 0.00 in 0.05 in - ()
Sea Level Pressure  
Sea Level Pressure 30.11 in    
Wind  
Wind Speed 4 mph ()    
Max Wind Speed 13 mph    
Max Gust Speed -    
Visibility 6.2 miles    
Events Rain    
T = Trace of Precipitation, MM = Missing Value Source: Averaged Metar Reports

Daily Weather History Graph

Daily Weather History Graph

Search for Another Location

Airport or City:

Trip Planner

Search our weather history database for the weather conditions in past years. The results will help you decide how hot, cold, wet, or windy it might be!

Date:

Astronomy

Nov. 13, 2012 Rise Set
Actual Time 6:04 AM EET 4:07 PM EET
Civil Twilight 5:35 AM EET 4:36 PM EET
Nautical Twilight 5:03 AM EET 5:08 PM EET
Astronomical Twilight 4:31 AM EET 5:40 PM EET
Moon 5:16 AM EET (11/13) 3:42 PM EET (11/13)
Length of Visible Light 11h 00m
Length of Day
10h 03m
Waning Crescent, 0% of the Moon is Illuminated
Nov 13
Waning Crescent
Nov 14
New
Nov 20
First Quarter
Nov 28
Full
Dec 6
Last Quarter

Hourly Weather History & Observations

Time (EET) Temp. Windchill Dew Point Humidity Pressure Visibility Wind Dir Wind Speed Gust Speed Precip Events Conditions
12:50 AM 51.8 °F - 42.8 °F 71% 30.12 in 6.2 mi North 12.7 mph - N/A   Mostly Cloudy
1:50 AM 50.0 °F - 44.6 °F 82% 30.12 in 6.2 mi Variable 2.3 mph - N/A   Mostly Cloudy
2:00 AM 50 °F - 44 °F 75%  in 6 mi South 2.3 mph - -   Partly Cloudy
2:50 AM 48.2 °F - 46.4 °F 93% 30.12 in 6.2 mi ENE 3.5 mph - N/A Rain Light Rain Showers
3:50 AM 48.2 °F - 46.4 °F 93% 30.12 in 6.2 mi Calm Calm - N/A   Mostly Cloudy
4:50 AM 50.0 °F - 42.8 °F 76% 30.12 in 6.2 mi NW 8.1 mph - N/A   Mostly Cloudy
5:50 AM 48.2 °F - 44.6 °F 87% 30.12 in 6.2 mi ENE 5.8 mph - N/A   Mostly Cloudy
6:50 AM 48.2 °F - 44.6 °F 87% 30.15 in 6.2 mi WSW 5.8 mph - N/A   Mostly Cloudy
7:50 AM 50.0 °F - 46.4 °F 87% 30.15 in 6.2 mi East 4.6 mph - N/A   Mostly Cloudy
8:00 AM 50 °F - 46 °F 81%  in 6 mi East 4.6 mph - -   Partly Cloudy
8:50 AM 51.8 °F - 46.4 °F 82% 30.15 in 6.2 mi ENE 4.6 mph - N/A   Mostly Cloudy
9:50 AM 53.6 °F - 46.4 °F 77% 30.15 in 6.2 mi Variable 1.2 mph - N/A   Mostly Cloudy
10:50 AM 53.6 °F - 44.6 °F 72% 30.12 in 6.2 mi Variable 1.2 mph - N/A   Mostly Cloudy
11:50 AM 55.4 °F - 44.6 °F 67% 30.12 in 6.2 mi Variable 1.2 mph - N/A   Mostly Cloudy
12:50 PM 55.4 °F - 44.6 °F 67% 30.09 in 6.2 mi Variable 2.3 mph - N/A   Mostly Cloudy
1:50 PM 57.2 °F - 46.4 °F 67% 30.09 in 6.2 mi Variable 2.3 mph - N/A   Mostly Cloudy
2:00 PM 57 °F - 46 °F 56%  in 6 mi East 2.3 mph - -   Partly Cloudy
2:50 PM 55.4 °F - 44.6 °F 67% 30.09 in 6.2 mi Variable 1.2 mph - N/A   Mostly Cloudy
3:50 PM 53.6 °F - 46.4 °F 77% 30.09 in 6.2 mi South 1.2 mph - N/A   Mostly Cloudy
4:50 PM 51.8 °F - 46.4 °F 82% 30.09 in 6.2 mi Variable 1.2 mph - N/A   Mostly Cloudy
5:50 PM 48.2 °F - 46.4 °F 93% 30.09 in 6.2 mi Calm Calm - N/A   Mostly Cloudy
6:50 PM 50.0 °F - 44.6 °F 82% 30.09 in 6.2 mi Calm Calm - N/A   Mostly Cloudy
7:50 PM 46.4 °F - 44.6 °F 93% 30.06 in 6.2 mi Calm Calm - N/A   Mostly Cloudy
8:00 PM 46 °F - 44 °F 91%  in 6 mi Calm Calm - -   Partly Cloudy
8:50 PM 46.4 °F - 44.6 °F 93% 30.09 in 6.2 mi Variable 2.3 mph - N/A   Mostly Cloudy
9:50 PM 46.4 °F 44.3 °F 41.0 °F 81% 30.06 in 6.2 mi West 4.6 mph - N/A   Mostly Cloudy
10:50 PM 46.4 °F 42.9 °F 42.8 °F 87% 30.06 in 6.2 mi North 6.9 mph - N/A   Scattered Clouds
11:50 PM 46.4 °F - 42.8 °F 87% 30.06 in 6.2 mi Variable 1.2 mph - N/A   Scattered Clouds